Retour au catalogue

COSMOS 2251 DEB

ActifLEO
NORAD 35669·DEBRIS·🇷🇺 Russia

Lancé Jun 16, 1993 depuis Plesetsk Cosmodrome

Loading…

Prochains Passages (prochaines 24 heures)

TLE

VieillissantSource: Space-Track

Époque: Sep 11, 2026, 04:27 UTC

1 35669U 93036APL 26254.18575250  .00000727  00000-0  64116-3 0  9999
2 35669  73.8577  74.7048 0385318 139.4620 223.5882 13.57643479644868

Suivez COSMOS 2251 DEB en temps réel avec AllMySat

Download on the App Store